Location: Rio Tanui
(39.9167°N, 8.5167°E)
Time: 18:45:29
(UTC+00:00)

Meteor 2-2 Rocket - Pass Details

Date: 19 June 2024
Orbit: 851 x 928 km, 81.3° (Epoch: 14 July)

Event Time Altitude Azimuth Distance (km) Brightness Sun altitude
Rises 01:27:58 0° 7° (N) 3,433 8.6 -20.7°
Reaches altitude 10° 01:31:19 10° 27° (NNE) 2,487 7.8 -20.4°
Maximum altitude 01:34:54 17° 67° (ENE) 2,025 6.8 -20.0°
Drops below altitude 10° 01:38:28 10° 107° (ESE) 2,479 6.8 -19.7°
Sets 01:41:47 0° 127° (SE) 3,416 7.3 -19.3°
